Regional Weather Roundup
Issued by NWS Little Rock, AR

Home | Current Version | Previous Version | Text Only | Print | Product List | Glossary On
Versions: 1 2 3 4 5 6 7 8 9 10 11 12 13 14 15 16 17 18 19 20 21 22 23 24 25 26 27 28 29 30 31 32 33 34 35 36 37 38 39 40 41 42 43 44 45 46 47 48 49 50
000
ASUS44 KLZK 231505
RWRLZK

WEATHER ROUNDUP FOR ARKANSAS
NATIONAL WEATHER SERVICE LITTLE ROCK AR
1000 AM CDT SAT AUG 23 2014

NOTE: "FAIR" INDICATES FEW OR NO CLOUDS BELOW 12,000 FEET WITH NO
SIGNIFICANT WEATHER AND/OR OBSTRUCTIONS TO VISIBILITY.

ARZ001-003-010-029-231600-
NORTHWEST ARKANSAS

CITY           SKY/WX    TMP DP  RH WIND       PRES   REMARKS
FAYETTEVILLE   SUNNY     86  70  58 SW12      30.04S HX  90
FORT SMITH     SUNNY     86  73  65 VRB3      30.00S HX  93
HARRISON       SUNNY     87  70  56 W8        30.06R HX  92
BENTONVILLE    SUNNY     84  70  61 SW7       30.05S HX  88
ROGERS         SUNNY     86  69  56 SW10      30.06R HX  90
SILOAM SPGS    SUNNY     84  68  58 SW9       30.04S HX  87
HIGHFILL       SUNNY     85  69  58 SW12      30.04R HX  89
SPRINGDALE     SUNNY     86  70  58 SW14      30.06S HX  90
$$

ARZ004-005-016-231600-
NORTH CENTRAL ARKANSAS

CITY           SKY/WX    TMP DP  RH WIND       PRES   REMARKS
BATESVILLE     SUNNY     90  75  62 NW5       30.01S HX 100
FLIPPIN        SUNNY     88  68  51 SW5       30.03S HX  91
MTN HOME       SUNNY     86  72  62 SW6       30.03R HX  92
$$

ARZ040-041-231600-
WEST CENTRAL ARKANSAS

CITY           SKY/WX    TMP DP  RH WIND       PRES   REMARKS
MENA           SUNNY     86  73  66 SW5       30.05S HX  93
MOUNT IDA      SUNNY     85  75  72 CALM      30.02R HX  93
$$

ARZ009-017-025-026-028-231600-
NORTHEAST ARKANSAS

CITY           SKY/WX    TMP DP  RH WIND       PRES   REMARKS
CORNING        FAIR      86  77  74 SW8       30.01R HX  97
JONESBORO      MOSUNNY   88  74  63 W8        30.01R HX  96
NEWPORT        SUNNY     89  77  67 W5        30.02R HX 101
WALNUT RIDGE   SUNNY     86  75  70 CALM      30.00R HX  95
BLYTHEVILLE    SUNNY     86  79  79 SW3       30.01S HX  99
$$

ARZ022-023-033-042-044-231600-
CENTRAL ARKANSAS

CITY           SKY/WX    TMP DP  RH WIND       PRES   REMARKS
LITTLE ROCK    SUNNY     88  72  58 W8        30.02S HX  94
N LITTLE ROCK  SUNNY     85  75  70 W5        30.02S HX  94
JACKSONVILLE   SUNNY     86  74  67 W8        30.02R HX  95
SEARCY           N/A     89  76  65 CALM        N/A  HX 100
HOT SPRINGS    SUNNY     85  73  67 W6        30.04R HX  91
RUSSELLVILLE   SUNNY     86  76  71 CALM      30.02S HX  96
CLINTON        FAIR      88  75  66 CALM      30.03S HAZE    HX  97
$$

ARZ036-231600-
EAST ARKANSAS

CITY           SKY/WX    TMP DP  RH WIND       PRES   REMARKS
WEST MEMPHIS   SUNNY     86  77  74 VRB6      30.01R HX  97
$$

ARZ050-053-066-070-073-231600-
SOUTHWEST ARKANSAS

CITY           SKY/WX    TMP DP  RH WIND       PRES   REMARKS
ARKADELPHIA    FAIR      86  78  76 CALM      30.04R HX  98
CAMDEN         SUNNY     84  72  65 NW3       30.04S HX  89
TEXARKANA      SUNNY     85  74  69 W6        30.03S HX  92
EL DORADO      SUNNY     84  74  71 SW5       30.05S HX  91
DE QUEEN       SUNNY     82  74  76 VRB3      30.01S HX  88
$$

ARZ056-057-069-231600-
SOUTHEAST ARKANSAS

CITY           SKY/WX    TMP DP  RH WIND       PRES   REMARKS
PINE BLUFF     SUNNY     85  73  67 W9        30.03S HX  91
STUTTGART      SUNNY     88  75  66 W8        30.03R HX  97
MONTICELLO     SUNNY     85  74  69 W8        30.04S HX  92

$$




USA.gov is the U.S. government's official web portal to all federal, state and local government web resources and services.